map of KPBH home
KPBH - Airport
Location
City:  Phillips, Wisconsin, United States
Name:Price County Airport
ICAO:KPBH
FAA LID:PBH

Details
Type:Airport (Airfield)
Use:Public/Civil
Latitude:4542'32"N (45.708833)
Longitude:9024'09"W (-90.402499)
Datum:WGS 1984
Elevation:1497 ft (456 m)
Variation:2.31W (WMM2015 magnetic declination)
-0.05 annual change
Runways:2
Longest:5220 × 75 ft (1591 × 23 m), paved

Time
Time Zone:UTC-6 (DST-5)
Local Time:

Weather
METAR:KPBH 220655Z AUTO 00000KT 10SM CLR 12/12 A2994 RMK AO2 T01230123

Related Locations
Nearby:
Farthest:YAUG: 10882 mi / 17513 km
Augusta [Augusta Airport], WA, AU

Find:

   beyond  
but within

Other Information
Maps:
NOTAMs:
Links:
Sources:

  
  • flag of United States
  • flag of Wisconsin
  

Sectional Chart

Flight Planning
at skyvector.com

Satellite Image

Google Maps Satellite view

 

Copyright © 2004-2018 Karl L. Swartz. All rights reserved.
The Great Circle Mapper name and logo are trademarks of the Great Circle Mapper.
All other trademarks mentioned herein belong to their respective owners.
Please see credits for attibutions and further copyright information.

  Follow gcmap on Facebook Follow gcmap on Twitter Follow gcmap on Google+ GCmap on LinkedIn

hCard Microformat

Geo Microformat